When you browse on this site, cookies collect data to enhance your experience and personalize the content and advertising you see.
Visit our Privacy Policy to learn more. By continuing to use the site, you agree to this use of cookies and data.
EN

Hourly Weather Benguela

Today, 11 July, Saturday

Time Temperature Precipitation Wind Pressure Humidity
00:00 +20°C° 0 mm 2 mps 760 mmHg 90%
01:00 +21°C° 0 mm 1 mps 760 mmHg 93%
02:00 +19°C° 0 mm 2 mps 760 mmHg 93%
03:00 +19°C° 0 mm 2 mps 759 mmHg 93%
04:00 +19°C° 0 mm 2 mps 759 mmHg 93%
05:00 +19°C° 0 mm 2 mps 760 mmHg 91%
06:00 +20°C° 0 mm 2 mps 760 mmHg 90%
07:00 +21°C° 0 mm 2 mps 760 mmHg 84%
08:00 +25°C° 0 mm 2 mps 760 mmHg 72%
09:00 +27°C° 0 mm 2 mps 760 mmHg 60%
10:00 +30°C° 0 mm 2 mps 760 mmHg 48%
11:00 +31°C° 0 mm 2 mps 759 mmHg 47%
12:00 +33°C° 0 mm 3 mps 758 mmHg 46%
13:00 +34°C° 0 mm 4 mps 757 mmHg 46%
14:00 +33°C° 0 mm 4 mps 757 mmHg 50%
15:00 +30°C° 0 mm 4 mps 757 mmHg 53%
16:00 +29°C° 0 mm 4 mps 756 mmHg 57%
17:00 +27°C° 0 mm 3 mps 757 mmHg 67%
18:00 +24°C° 0 mm 2 mps 757 mmHg 77%
19:00 +21°C° 0 mm 2 mps 758 mmHg 87%
20:00 +22°C° 0 mm 1 mps 759 mmHg 89%
21:00 +21°C° 0 mm 1 mps 759 mmHg 91%
22:00 +21°C° 0 mm 1 mps 760 mmHg 93%
23:00 +21°C° 0 mm 1 mps 760 mmHg 93%

Tomorrow, 12 July, Sunday

Time Temperature Precipitation Wind Pressure Humidity
00:00 +18°C° 0 mm 0 mps 759 mmHg 93%
01:00 +18°C° 0 mm 0 mps 759 mmHg 92%
02:00 +18°C° 0 mm 0 mps 759 mmHg 92%
03:00 +18°C° 0 mm 0 mps 759 mmHg 91%
04:00 +18°C° 0 mm 0 mps 759 mmHg 90%
05:00 +18°C° 0 mm 0 mps 759 mmHg 89%
06:00 +20°C° 0 mm 1 mps 759 mmHg 89%
07:00 +20°C° 0 mm 1 mps 760 mmHg 88%
08:00 +23°C° 0 mm 1 mps 760 mmHg 79%
09:00 +25°C° 0 mm 2 mps 760 mmHg 69%
10:00 +28°C° 0 mm 3 mps 760 mmHg 60%
11:00 +29°C° 0 mm 3 mps 759 mmHg 59%
12:00 +29°C° 0 mm 4 mps 759 mmHg 58%
13:00 +30°C° 0 mm 4 mps 759 mmHg 56%
14:00 +29°C° 0 mm 4 mps 758 mmHg 59%
15:00 +28°C° 0 mm 3 mps 758 mmHg 62%
16:00 +27°C° 0 mm 3 mps 757 mmHg 65%
17:00 +26°C° 0 mm 2 mps 758 mmHg 71%
18:00 +25°C° 0 mm 2 mps 759 mmHg 77%
19:00 +24°C° 0 mm 1 mps 759 mmHg 82%
20:00 +24°C° 0 mm 1 mps 760 mmHg 80%
21:00 +24°C° 0 mm 1 mps 760 mmHg 78%
22:00 +24°C° 0 mm 1 mps 760 mmHg 76%
23:00 +23°C° 0 mm 1 mps 760 mmHg 81%

Day after tomorrow, 13 July, Monday

Time Temperature Precipitation Wind Pressure Humidity
00:00 +20°C° 0 mm 0 mps 760 mmHg 86%
01:00 +18°C° 0 mm 0 mps 760 mmHg 91%
02:00 +18°C° 0 mm 0 mps 760 mmHg 92%
03:00 +18°C° 0 mm 0 mps 759 mmHg 92%
04:00 +17°C° 0 mm 0 mps 759 mmHg 93%
05:00 +20°C° 0 mm 1 mps 759 mmHg 92%
06:00 +20°C° 0 mm 1 mps 760 mmHg 92%
07:00 +20°C° 0 mm 1 mps 760 mmHg 92%
08:00 +23°C° 0 mm 1 mps 760 mmHg 82%
09:00 +25°C° 0 mm 2 mps 760 mmHg 72%
10:00 +27°C° 0 mm 2 mps 760 mmHg 63%
11:00 +28°C° 0 mm 3 mps 759 mmHg 60%
12:00 +29°C° 0 mm 3 mps 759 mmHg 58%
13:00 +30°C° 0 mm 4 mps 758 mmHg 56%
14:00 +29°C° 0 mm 4 mps 757 mmHg 59%
15:00 +28°C° 0 mm 3 mps 757 mmHg 62%
16:00 +28°C° 0 mm 3 mps 756 mmHg 65%
17:00 +26°C° 0 mm 3 mps 757 mmHg 74%
18:00 +24°C° 0 mm 2 mps 757 mmHg 82%
19:00 +22°C° 0 mm 1 mps 758 mmHg 91%
20:00 +22°C° 0 mm 1 mps 758 mmHg 91%
21:00 +20°C° 0 mm 0 mps 759 mmHg 92%
22:00 +19°C° 0 mm 0 mps 759 mmHg 92%
23:00 +19°C° 0 mm 0 mps 759 mmHg 92%

14 July, Tuesday

Time Temperature Precipitation Wind Pressure Humidity
00:00 +19°C° 0 mm 0 mps 759 mmHg 93%
01:00 +18°C° 0 mm 0 mps 759 mmHg 93%
02:00 +20°C° 0 mm 1 mps 759 mmHg 93%
03:00 +20°C° 0 mm 1 mps 759 mmHg 94%
04:00 +20°C° 0 mm 1 mps 759 mmHg 94%
05:00 +20°C° 0 mm 1 mps 759 mmHg 93%
06:00 +21°C° 0 mm 1 mps 759 mmHg 91%
07:00 +21°C° 0 mm 1 mps 759 mmHg 90%
08:00 +23°C° 0 mm 2 mps 759 mmHg 78%
09:00 +26°C° 0 mm 2 mps 759 mmHg 67%
10:00 +28°C° 0 mm 2 mps 759 mmHg 55%
11:00 +29°C° 0 mm 3 mps 759 mmHg 54%
12:00 +30°C° 0 mm 4 mps 758 mmHg 52%
13:00 +30°C° 0 mm 4 mps 757 mmHg 50%
14:00 +29°C° 0 mm 4 mps 757 mmHg 55%
15:00 +28°C° 0 mm 4 mps 756 mmHg 61%
16:00 +27°C° 0 mm 4 mps 756 mmHg 66%
17:00 +26°C° 0 mm 3 mps 756 mmHg 71%
18:00 +25°C° 0 mm 2 mps 757 mmHg 76%
19:00 +24°C° 0 mm 2 mps 758 mmHg 81%
20:00 +24°C° 0 mm 1 mps 758 mmHg 81%
21:00 +23°C° 0 mm 1 mps 759 mmHg 81%
22:00 +21°C° 0 mm 0 mps 759 mmHg 81%
23:00 +20°C° 0 mm 0 mps 759 mmHg 84%

15 July, Wednesday

Time Temperature Precipitation Wind Pressure Humidity
00:00 +19°C° 0 mm 0 mps 759 mmHg 88%
01:00 +18°C° 0 mm 0 mps 759 mmHg 91%
02:00 +18°C° 0 mm 0 mps 759 mmHg 91%
03:00 +20°C° 0 mm 1 mps 759 mmHg 92%
04:00 +19°C° 0 mm 1 mps 759 mmHg 92%
05:00 +20°C° 0 mm 1 mps 759 mmHg 91%
06:00 +20°C° 0 mm 1 mps 760 mmHg 90%
07:00 +20°C° 0 mm 1 mps 761 mmHg 89%
08:00 +23°C° 0 mm 1 mps 760 mmHg 77%
09:00 +26°C° 0 mm 1 mps 760 mmHg 64%
10:00 +29°C° 0 mm 1 mps 760 mmHg 51%
11:00 +29°C° 0 mm 2 mps 760 mmHg 50%
12:00 +30°C° 0 mm 3 mps 759 mmHg 50%
13:00 +32°C° 0 mm 5 mps 758 mmHg 49%
14:00 +30°C° 0 mm 4 mps 758 mmHg 53%
15:00 +29°C° 0 mm 3 mps 757 mmHg 58%
16:00 +28°C° 0 mm 3 mps 757 mmHg 63%
17:00 +26°C° 0 mm 2 mps 758 mmHg 72%
18:00 +24°C° 0 mm 2 mps 758 mmHg 80%
19:00 +23°C° 0 mm 1 mps 759 mmHg 89%
20:00 +22°C° 0 mm 1 mps 760 mmHg 89%
21:00 +22°C° 0 mm 1 mps 760 mmHg 90%
22:00 +22°C° 0 mm 1 mps 761 mmHg 91%
23:00 +21°C° 0 mm 1 mps 761 mmHg 91%

16 July, Thursday

Time Temperature Precipitation Wind Pressure Humidity
00:00 +20°C° 0 mm 2 mps 760 mmHg 91%
01:00 +20°C° 0 mm 2 mps 760 mmHg 91%
02:00 +19°C° 0 mm 2 mps 760 mmHg 92%
03:00 +19°C° 0 mm 1 mps 760 mmHg 93%
04:00 +19°C° 0 mm 1 mps 761 mmHg 93%
05:00 +19°C° 0 mm 1 mps 761 mmHg 92%
06:00 +20°C° 0 mm 1 mps 762 mmHg 90%
07:00 +20°C° 0 mm 1 mps 762 mmHg 89%
08:00 +23°C° 0 mm 1 mps 762 mmHg 75%
09:00 +26°C° 0 mm 1 mps 762 mmHg 62%
10:00 +28°C° 0 mm 1 mps 762 mmHg 49%
11:00 +29°C° 0 mm 2 mps 761 mmHg 48%
12:00 +30°C° 0 mm 3 mps 760 mmHg 47%
13:00 +32°C° 0 mm 4 mps 759 mmHg 46%
14:00 +30°C° 0 mm 4 mps 759 mmHg 50%
15:00 +30°C° 0 mm 4 mps 758 mmHg 53%
16:00 +29°C° 0 mm 3 mps 758 mmHg 57%
17:00 +26°C° 0 mm 3 mps 759 mmHg 68%
18:00 +24°C° 0 mm 3 mps 759 mmHg 78%
19:00 +21°C° 0 mm 2 mps 760 mmHg 88%
20:00 +21°C° 0 mm 2 mps 761 mmHg 90%
21:00 +21°C° 0 mm 1 mps 761 mmHg 91%
22:00 +20°C° 0 mm 1 mps 761 mmHg 93%
23:00 +20°C° 0 mm 1 mps 761 mmHg 93%
Show more